星链-32327 (STARLINK-32327)

导读

STARLINK-32327是美国SpaceX公司星链(Starlink)星座中的一颗互联网通信卫星,于2024年10月23日由猎鹰9号火箭从美国佛罗里达州卡纳维拉尔角空间站发射升空。 该卫星被部署至近地轨道,属于SpaceX全球卫星互联网计划的一部分,旨在为全球偏远地区提供低延迟、高速宽带互联网接入服务,此次发射是SpaceX批量部署星链卫星任务中的一次,进一步扩大了星链星座的在轨规模。

基本信息
目录编号:
61641
目录名称:
STARLINK-32327
国际标识:
2024-191W
轨道中心:
EARTH
卫星名称:
星链-32327
卫星全名:
星链-32327 (STARLINK-32327)
卫星状态:
在轨 (已飞行688 天)
发射日期:
2024-10-23 UTC
国别 :
美国 (US)
星等 :
--
该卫星已列入 空间交会检测服务 Space Conjunction Data Service (SCDS) ,当前飞行风险评估等级: 高风险
轨道信息
数据来源 国际轨道数据 AOE轨道数据
星历时间 2026-09-11T11:49:52+0800
17小时前
查看轨道信息
2026-09-11T00:00:00+0800
1天前
查看轨道信息
半长轴 6861.2km 6861.223km
偏心率 0.0000845 0.0000947
轨道倾角 43.002° 43.000°
近地点辐角 247.743° 290.587°
升交点赤经 186.890° 189.678°
平近点角 112.333° 235.319°
近地点 482.483km 482.436km
远地点 483.643km 483.736km
周期 94.267分钟 94.267分钟
每日圈数 15.275754 15.275679
详细信息
固有亮度:
5
最大亮度:
2.5
卫星平台:
Starlink V1.0
覆盖范围:
全球
运营商:
太空探索技术公司
运营商所在国:
美国
制造商(研发单位):
太空探索技术公司
制造商所在国:
美国
使用方式:
暂无
卫星简介
Starlink 计划是 SpaceX 推出的全球卫星互联网项目,通过发射低轨道卫星,为全球尤其是偏远地区提供高速、低延迟的互联网服务。自 2019 年起,Starlink 已部署数千颗卫星,旨在缩小全球数字鸿沟,推动互联网普及。该项目还为军事、航空等行业提供通信支持,带来广泛经济效益。
2D轨道图
3D轨道图
轨道高度分析图
轨道倾角分析图
轨道综合分析图
查看轨道综合分析图
交会数据列表
事件ID 空间交会对象 最接近时刻(TCA) 交会距离 交会风险概率(CRP) 交会风险指数(CRI) 操作
CDM_260912-235406-164106-698221
2026-09-12T
23:54:33+0000
0.652 km
远距离
7.812767E-5 中风险 0.73
CDM_260914-014506-164106-363621
2026-09-14T
01:45:16+0000
0.738 km
远距离
5.604912E-5 中风险 0.7
CDM_260910-224906-164106-632721
2026-09-10T
22:49:36+0000
0.854 km
远距离
2.183546E-5 中风险 0.62
CDM_260913-105006-164106-363621
2026-09-13T
10:50:49+0000
1.094 km
极远距离
1.508592E-5 中风险 0.59
CDM_260913-234306-164106-711121
2026-09-13T
23:43:30+0000
0.751 km
远距离
1.473104E-5 中风险 0.58
CDM_260913-192606-164106-648721
2026-09-13T
19:26:01+0000
1.149 km
极远距离
1.295624E-5 中风险 0.57
CDM_260913-114006-164106-698221
2026-09-13T
11:40:41+0000
1.308 km
极远距离
7.811087E-6 低风险 0.53
CDM_260913-122406-164106-363621
2026-09-13T
12:24:58+0000
1.481 km
极远距离
5.362543E-6 低风险 0.5
CDM_260913-225606-164106-711121
2026-09-13T
22:56:25+0000
1.077 km
极远距离
4.339054E-6 低风险 0.48
CDM_260910-080106-164106-442821
2026-09-10T
08:01:57+0000
2.073 km
极远距离
2.2801E-6 低风险 0.42
与全量物体交会距离演化趋势
与全量物体交会风险概率演化趋势